Regional Weather Roundup
Issued by NWS

Home | Current Version | Previous Version | Graphics & Text | Print | Product List | Glossary Off
Versions: 1 2 3 4 5 6 7 8 9 10 11 12 13 14 15 16 17 18 19 20 21 22 23 24 25 26 27 28 29 30 31 32 33 34 35 36 37 38 39 40 41 42 43 44 45 46 47 48 49 50

000
ASUS43 KMKX 060221
RWRWI

WISCONSIN REGIONAL WEATHER ROUNDUP
NATIONAL WEATHER SERVICE MILWAUKEE/SULLIVAN WI
900 PM CDT SUN JUL 05 2015

NOTE: "FAIR" INDICATES FEW OR NO CLOUDS BELOW 12,000 FEET WITH NO
SIGNIFICANT WEATHER AND/OR OBSTRUCTIONS TO VISIBILITY.

WIZ001-002-006>008-014>016-023>028-060300-
NORTHWEST WISCONSIN

CITY           SKY/WX    TMP DP  RH WIND       PRES   REMARKS
SUPERIOR ARPT  RAIN      66  64  93 N10       29.74F
ASHLAND        PTCLDY    77  66  68 S9        29.78F
HAYWARD        PTCLDY    77  66  68 S14       29.83F
SIREN          CLEAR     79  67  66 S13G18    29.80S HX  81
CUMBERLAND     PTCLDY    73  64  73 S10       29.84F
RICE LAKE      PTCLDY    76  65  70 S9        29.86F
CHETEK         PTCLDY    76  67  75 SE8       29.85F
LADYSMITH      PTCLDY    75  65  70 S9        29.88F
EAU CLAIRE     PTCLDY    77  65  66 S15G22    29.85F
MENOMONIE      PTCLDY    76  66  70 SE8       29.85F
NEW RICHMOND   CLEAR     76  67  73 S10       29.82F
OSCEOLA        CLEAR     78  68  72 S10G17    29.83S HX  80
$$

WIZ003>005-009-010-017-018-060300-
NORTH CENTRAL WISCONSIN

CITY           SKY/WX    TMP DP  RH WIND       PRES   REMARKS
MANITOWISH WTR MOCLDY    73  64  73 S7        29.88F
ARBOR VITAE    MOCLDY    76  65  68 S10       29.89F
WOODRUFF       MOCLDY    76  65  68 S10       29.89F
RHINELANDER    PTCLDY    74  61  63 S8        29.93F
EAGLE RIVER    PTCLDY    73  61  64 S7        29.91F
LAND O LAKES   PTCLDY    74  61  65 S8        29.91F
PHILLIPS       CLEAR     73  64  73 S8        29.88S
TOMAHAWK       PTCLDY    69  63  79 CALM      29.92F
MEDFORD        PTCLDY    72  64  75 S8        29.91F
MERRILL        PTCLDY    74  64  69 S7        29.93S
$$

WIZ029-030-035-036-043>047-060300-
CENTRAL WISCONSIN

CITY           SKY/WX    TMP DP  RH WIND       PRES   REMARKS
WAUSAU         CLEAR     76  63  64 S8        29.92S
MOSINEE        CLEAR     72  64  78 S8        29.95F
MARSHFIELD     PTCLDY    74  62  66 S10       29.93S
STEVENS POINT  CLEAR     73  62  69 S7        29.95S
WAUPACA        CLEAR     74  64  69 SE7       29.95F
WAUTOMA        CLEAR     75  65  71 SE6       29.96F
WISC RAPIDS    PTCLDY    75  62  64 S5        29.95F
CAMP DOUGLAS   PTCLDY    75  69  81 SW2       29.94F
$$

WIZ011>013-019>022-031-037>040-048>050-060300-
NORTHEAST WISCONSIN

CITY           SKY/WX    TMP DP  RH WIND       PRES   REMARKS
ANTIGO         CLEAR     67  63  85 S8        29.95S
SHAWANO        CLEAR     75  64  67 S5        29.94F
OCONTO         CLEAR     72  65  79 S8        29.95R
STURGEON BAY   CLEAR     66  57  72 S9        30.00R
GREEN BAY      CLEAR     73  63  70 S9        29.96S
MANITOWOC      CLEAR     68  60  75 MISG      29.99S
APPLETON       PTCLDY    73  61  64 S9        29.97S
CLINTONVILLE   CLEAR     72  63  73 S5        29.94S
OSHKOSH        CLEAR     74  63  68 SW5       29.98R
$$

WIZ032>034-041-042-053>061-060300-
SOUTHWEST WISCONSIN

CITY           SKY/WX    TMP DP  RH WIND       PRES   REMARKS
LA CROSSE      PTCLDY    78  65  63 SE9       29.89F HX  80
SPARTA         PTCLDY    75  61  61 S6        29.93F
VIROQUA        PTCLDY    73  65  76 S8        29.95S
BOSCOBEL       CLEAR     77  66  68 S5        29.94F
PRAIRIE DU CHI CLEAR     76  63  63 SE5       29.92S
PLATTEVILLE    CLEAR     72  67  85 SE8       29.98S
$$

WIZ056-057-062-063-064-067-068-060300-
SOUTH CENTRAL WISCONSIN

CITY           SKY/WX    TMP DP  RH WIND       PRES   REMARKS
REEDSBURG      PTCLDY    73  65  77 SE5       29.95F
BARABOO/DELLS  PTCLDY    71  62  74 S5        29.97S
LONE ROCK      CLEAR     75  64  68 SE3       29.97S
MINERAL POINT  CLEAR     72  64  78 S6        29.98F
MADISON        MOCLDY    77  64  64 S8        29.98S
MIDDLETON      PTCLDY    76  63  62 S8        29.99S
WATERTOWN      CLEAR     72  64  78 S3        29.99S
MONROE         CLEAR     72  64  78 S7        29.99F
JANESVILLE     CLEAR     75  63  64 S6        29.99S
$$

WIZ051-052-058>065-066-070>072-060300-
SOUTHEAST WISCONSIN

CITY           SKY/WX    TMP DP  RH WIND       PRES   REMARKS
MILWAUKEE      PTCLDY    72  58  61 S7        30.00F
WAUKESHA       CLEAR     72  61  68 SE14      30.01F
MILWAUKEE/TIMM CLEAR     73  55  53 S7        30.01S
RACINE         PTCLDY    70  59  68 S7        30.02F
BURLINGTON     PTCLDY    66  61  84 CALM      30.01R
KENOSHA        PTCLDY    72  60  66 S7        30.01F
FOND DU LAC    CLEAR     74  63  68 S8        29.97F
SHEBOYGAN      CLEAR     70  59  68 S9        29.99F
WEST BEND      CLEAR     72  59  64 S3        30.00S
JUNEAU         CLEAR     72  64  74 S8        30.00S
$$

LSZ147-162-060300-
LAKE SUPERIOR

STATION/POSITION TIME  TEMP    WIND        PRES    WAVE
                       AIR SEA DIR/SP/G            HT/PER
                 (UTC) (F)     (DEG/KT/KT) (MB)    (FT/S)
W MID LAKE BUOY  0150   54 39  160/ 12/ 12 1007.9F   0
DEVILS ISLAND    0200   68     230/  3/  4 1007.5R
SAXON HARBOR     0140   80     190/  7/ 17 1008.1F
$$

LMZ867-665-643>646-060300-
LAKE MICHIGAN

STATION/POSITION TIME  TEMP    WIND        PRES    WAVE
                       AIR SEA DIR/SP/G            HT/PER
                 (UTC) (F)     (DEG/KT/KT) (MB)    (FT/S)
CHAMBERS ISLAND  0100   72     150/  6/ 13 1014.2S
S GREEN BAY BUOY 0100   73 70  170/ 16/ 19 1015.7F
N MID LAKE BUOY  0150   58 48  200/ 14/ 16 1014.9F   2/ 4
NORTHPORT PIER   0100   68     160/  6/ 12 1014.6F
SISTER BAY       0114   70     160/ 15/ 22   N/A
ALGOMA LAKESHORE 0111          210/ 12/ 13   N/A
KEWAUNEE LAKESHO 0100   65     180/ 12/ 13 1014.9F
SHEBOYGAN LAKESH 0200   63     170/ 15/ 16 1015.4F
PORT WASHINGTON  0100   67     190/  5/  8 1016.6
ATWATER BUOY     0200   65 60  150/ 10/ 12 1017.0F
MILWAUKEE LAKESH 0200   65     160/  9/ 10   N/A
KENOSHA   LAKESH 0200   69     180/  9/ 11 1015.6F
$$

TC  - TEMPERATURE IN CELSIUS
VSB - VISIBILITY IN STATUTE MILES
WCI - WIND CHILL INDEX
HX  - HEAT INDEX



USA.gov is the U.S. government's official web portal to all federal, state and local government web resources and services.